Overview Statistics Trail Chart Weather Telemetry Raw packets
 

This is the latest recevied weather packets stored in our database for station/object K6CEG. If no packets are shown the sender has not sent any weather packets the latest 10 day(s).

<< 28 29 30 31 32 33 34 >>
Time Temp. Humidity Pressure Rain* Wind** Luminosity Snow
1788488542 22.78° C 58% 1013.2 hPa 0 mm - 0 W/m² -
1788488238 22.78° C 57% 1013.4 hPa 0 mm - 0 W/m² -
1788487932 23.33° C 55% 1013.3 hPa 0 mm - 1 W/m² -
1788487628 23.33° C 54% 1013.2 hPa 0 mm - 4 W/m² -
1788487328 23.89° C 55% 1013.2 hPa 0 mm - 6 W/m² -
1788487026 23.89° C 56% 1013.2 hPa 0 mm - 10 W/m² -
1788486727 24.44° C 55% 1013.4 hPa 0 mm - 10 W/m² -
1788486425 25° C 54% 1013.4 hPa 0 mm - 11 W/m² -
1788486121 24.44° C 54% 1013.3 hPa 0 mm - 15 W/m² -
1788485818 25° C 53% 1013.1 hPa 0 mm - 15 W/m² -
1788485513 25.56° C 52% 1013.3 hPa 0 mm - 18 W/m² -
1788485209 25.56° C 52% 1013.4 hPa 0 mm - 18 W/m² -
1788484907 25.56° C 51% 1013.2 hPa 0 mm - 20 W/m² -
1788484607 25.56° C 52% 1013.1 hPa 0 mm - 23 W/m² -
1788484303 25.56° C 53% 1013.2 hPa 0 mm - 25 W/m² -
1788483998 25.56° C 53% 1013.3 hPa 0 mm - 68 W/m² -
1788483695 25.56° C 53% 1013.1 hPa 0 mm - 86 W/m² -
1788483390 25.56° C 54% 1013.2 hPa 0 mm - 24 W/m² -
1788483085 25.56° C 54% 1013.2 hPa 0 mm - 25 W/m² -
1788482780 25.56° C 54% 1013.3 hPa 0 mm - 28 W/m² -
1788482480 25.56° C 54% 1013.4 hPa 0 mm - 27 W/m² -
1788482176 25.56° C 53% 1013.2 hPa 0 mm - 28 W/m² -
1788481872 25.56° C 54% 1013.3 hPa 0 mm - 29 W/m² -
1788481568 26.11° C 53% 1013.2 hPa 0 mm - 29 W/m² -
1788481262 26.11° C 53% 1013.3 hPa 0 mm - 35 W/m² -

* Rain latest hour (hover to see other rain measurements)
** Current wind speed in m/s (hover to see current wind gust speed)